Temperature
12 11 10 11 12 13 13 13 12 13 13 13 12 12 12 12 11 11 12 12 11 10 9 9 9 8 8 8 8 8 9 9 9 9 9 9 10 10 10 10 10 10 10 10
11 10 11 12 12 12 12 11 12 12 13 12 11 11 12 12 11 11 11 11 10 10 9 9 8 8 8 8 8 8 8 8 9 9 9 9 9 9 9 9 9 9 10 10
10 11 12 12 11 11 11 11 11 11 11 11 11 10 11 11 11 11 11 10 10 9 9 8 8 7 7 7 7 8 8 8 8 8 8 8 8 8 9 9 9 9 9 9
10 11 11 11 11 11 10 11 11 10 9 9 10 9 11 11 10 10 10 10 10 9 8 8 7 7 7 7 7 7 7 8 8 8 8 8 8 8 8 8 8 8 8 9
10 10 10 10 10 10 10 10 10 10 9 8 9 9 9 11 10 10 10 10 9 9 8 8 7 7 7 7 7 7 7 7 7 7 7 8 7 7 8 8 8 8 8 8
9 10 10 10 10 10 10 9 9 9 8 7 9 9 9 10 10 10 10 9 9 8 8 7 7 6 6 6 6 6 6 7 7 7 7 7 7 7 7 7 7 7 7 7
8 9 9 9 8 9 9 8 7 7 7 7 10 9 9 10 10 10 9 9 9 8 7 6 6 6 6 6 6 6 6 6 6 6 6 6 6 6 6 6 6 6 7 7
7 8 8 8 8 8 8 8 7 7 8 8 9 8 9 10 9 9 9 9 8 7 7 6 5 5 5 5 5 5 5 5 6 6 6 6 6 6 6 6 6 6 6 6
7 7 8 8 8 8 8 7 9 7 7 7 8 9 9 9 8 8 8 8 7 7 6 6 5 5 4 4 5 5 5 5 5 5 5 5 5 5 5 5 5 5 6 6
7 6 7 7 7 7 7 7 7 6 6 7 8 9 8 8 8 7 7 7 7 6 6 5 5 4 4 4 4 4 4 4 4 5 5 5 5 5 5 5 5 5 5 5
6 5 5 6 5 6 6 6 6 6 6 7 7 8 9 8 7 7 6 7 6 6 5 5 4 4 4 4 4 4 4 4 4 4 4 4 4 4 4 4 4 4 4 4
6 5 5 5 6 6 6 6 6 5 6 6 6 6 8 7 7 7 7 6 6 6 5 5 4 4 3 3 3 3 3 3 3 4 3 3 3 3 4 4 4 4 4 4
5 4 4 5 4 4 5 5 5 5 5 5 5 6 7 7 7 7 6 6 6 5 5 4 4 4 3 3 3 3 3 3 3 3 3 3 3 3 3 3 3 3 3 3
5 3 4 5 5 4 3 4 4 4 4 4 5 6 6 6 6 6 6 6 5 5 4 4 4 3 3 3 3 3 3 3 3 3 3 3 3 2 2 2 2 2 3 3
4 3 3 4 4 4 4 3 3 3 4 4 5 5 6 6 5 6 6 6 5 5 4 4 3 3 3 3 3 3 2 2 2 2 2 2 2 2 2 2 2 2 2 2
3 2 3 3 4 4 3 3 3 3 4 4 4 5 5 6 6 6 6 5 5 4 4 4 3 3 3 3 2 2 2 2 2 2 2 2 2 2 2 2 2 2 2 1
2 2 2 3 3 3 2 3 3 3 3 4 4 4 5 5 5 5 5 5 5 4 4 3 3 3 3 2 2 2 2 2 2 2 1 1 1 1 1 1 1 1 1 1
1 2 2 2 2 2 4 4 4 3 3 4 4 4 4 4 5 5 5 5 4 4 3 3 3 3 3 2 2 2 2 1 1 1 1 1 1 1 1 1 1 1 0 0
1 1 2 2 2 3 4 4 3 3 3 3 3 3 4 4 4 4 5 4 4 3 3 3 2 2 2 2 2 2 1 1 1 1 1 1 1 0 0 0 0 0 0 -0
1 1 1 2 2 3 4 3 4 3 2 3 3 2 3 3 1 2 4 4 3 3 2 2 2 2 2 2 1 1 1 1 1 1 1 0 0 -0 -0 -0 -0 -0 -0 -1
-0 0 0 1 2 2 3 2 3 3 3 3 3 3 3 2 2 3 3 3 3 2 2 2 2 2 1 1 1 1 1 1 0 0 0 -0 -0 -0 -1 -1 -1 -1 -1 -1
0 -0 0 1 1 2 2 2 2 2 3 4 4 3 3 3 3 3 3 2 2 2 2 1 1 1 1 1 1 0 0 0 -0 -0 -0 -1 -1 -1 -1 -1 -1 -1 -1 -2
0 1 1 1 2 3 3 3 3 4 3 3 3 3 3 3 3 2 2 2 1 1 1 1 1 1 0 0 0 0 0 -0 -0 -0 -1 -1 -1 -1 -2 -2 -2 -2 -2 -2
0 1 1 0 1 2 3 3 3 3 3 3 3 3 3 2 2 2 2 1 1 1 1 0 0 -0 -0 -0 -0 -0 -0 -1 -1 -1 -1 -1 -1 -2 -2 -2 -2 -3 -3 -3
1 -0 -0 -0 1 2 2 3 3 2 2 2 2 2 2 2 2 1 1 1 1 0 0 -0 -0 -1 -1 -1 -1 -1 -1 -1 -1 -1 -2 -2 -2 -2 -3 -3 -3 -3 -3 -3
0 -1 -0 0 1 1 2 3 3 2 2 2 2 2 2 1 1 1 1 1 0 0 -0 -1 -1 -1 -1 -1 -1 -1 -2 -2 -2 -2 -2 -2 -3 -3 -3 -3 -3 -3 -4 -4
Wind_Speed
5 4 5 5 6 6 5 6 7 4 1 5 8 9 7 6 6 6 6 5 4 3 3 3 3 2 3 2 2 2 2 2 1 1 1 1 1 0 0 2 3 3 3 2
3 7 6 3 4 6 6 8 7 5 1 3 7 10 8 6 7 7 6 5 4 4 3 3 3 3 2 2 2 2 2 2 1 1 1 1 1 1 1 2 2 3 3 3
6 2 2 4 5 6 7 7 6 5 4 5 5 8 8 6 7 6 5 4 4 4 4 4 3 3 2 2 2 2 1 1 2 1 1 2 1 1 1 1 1 2 3 3
5 4 4 4 5 6 6 4 4 4 4 4 4 5 6 6 7 7 6 5 4 4 4 4 3 3 2 2 2 1 2 2 1 2 2 2 2 1 1 1 1 2 3 2
3 1 4 6 5 4 3 2 4 5 6 6 6 6 6 6 7 7 7 6 4 5 5 4 4 3 2 2 2 2 2 1 1 2 2 3 2 1 1 2 2 2 2 2
4 3 3 2 1 2 1 2 4 4 3 6 9 8 6 4 6 6 6 5 5 5 5 5 4 4 3 2 2 2 2 2 2 2 2 3 2 2 3 2 2 1 1 1
4 5 4 1 1 2 3 2 1 2 4 7 5 6 6 2 2 5 6 5 5 5 5 5 4 3 2 2 2 3 3 2 2 2 2 2 2 3 3 2 2 1 1 1
3 4 5 4 3 3 6 5 4 3 4 3 3 6 4 2 4 4 5 5 5 5 5 4 4 3 3 2 2 3 3 2 2 2 1 1 2 2 2 2 2 1 1 1
3 1 1 0 2 2 3 5 3 3 4 4 5 4 1 3 3 4 5 5 5 5 5 4 4 4 3 3 2 3 3 2 2 2 2 2 2 2 2 2 2 1 1 1
2 2 2 1 2 4 4 2 2 3 3 5 5 6 4 5 4 4 4 5 4 5 4 4 4 3 3 3 3 3 3 2 2 2 1 2 2 2 2 2 2 1 1 1
2 2 2 3 5 5 5 3 4 3 3 3 5 4 2 2 3 4 4 4 5 4 4 4 3 3 3 3 3 2 2 3 2 2 2 2 1 2 2 2 1 1 1 1
2 2 4 4 2 3 4 5 5 4 5 4 4 5 2 3 3 3 3 4 4 4 4 4 4 3 2 2 2 2 2 2 2 2 2 2 1 2 2 1 1 2 1 1
1 2 2 2 2 2 4 4 4 3 3 5 6 6 0 2 2 2 3 3 3 4 4 4 3 3 2 2 2 2 2 2 2 2 2 2 2 1 1 1 1 2 1 1
1 3 5 6 3 2 4 5 5 5 5 7 8 8 6 4 3 2 2 3 3 4 4 4 3 3 3 2 2 2 2 2 2 2 2 2 2 1 1 1 1 1 1 1
2 4 5 7 6 5 7 7 8 9 9 9 9 9 10 7 5 4 3 3 3 4 4 4 4 3 3 2 2 2 2 2 2 2 2 2 1 2 2 1 1 1 0 0
3 3 3 6 6 7 9 10 11 12 11 12 12 13 9 7 4 4 5 5 5 5 5 5 4 4 4 3 3 2 2 2 2 2 1 2 1 1 1 1 1 0 0 1
3 3 3 5 4 5 9 11 13 9 10 9 13 12 6 5 5 5 5 5 5 4 5 5 5 5 4 3 3 3 2 2 2 2 2 2 2 1 1 1 1 1 1 1
5 5 4 3 2 8 7 2 6 8 10 10 8 6 5 5 5 5 5 5 5 4 4 5 4 4 3 3 3 3 3 2 2 2 2 2 2 1 1 1 1 1 1 1
7 6 4 3 5 8 5 3 4 5 7 8 9 8 6 3 4 5 4 3 4 3 3 3 3 3 3 4 4 3 3 3 3 3 2 2 2 2 1 1 2 1 1 2
4 5 5 5 5 7 5 2 2 2 5 4 6 6 4 1 2 5 2 1 1 2 2 2 2 2 3 4 4 4 4 3 3 3 2 2 2 2 2 2 2 1 2 2
4 5 8 8 7 7 3 3 4 4 5 2 3 3 3 4 5 3 1 1 0 1 2 2 2 3 3 4 5 4 4 4 3 2 2 2 2 2 2 2 2 2 2 2
7 6 7 6 7 8 4 5 6 5 2 1 2 3 3 4 3 2 1 1 1 1 1 2 2 3 2 4 5 4 4 3 3 3 2 2 2 2 2 2 2 2 1 2
7 6 5 7 7 3 5 4 3 2 2 2 2 3 3 4 4 3 3 2 2 2 1 2 3 2 2 3 5 5 4 3 3 3 3 3 2 2 2 2 2 2 2 2
4 3 4 6 7 5 5 5 4 3 4 4 4 4 4 5 5 4 3 3 3 2 2 2 3 3 3 3 3 4 3 3 3 3 3 3 3 2 2 2 2 2 3 3
4 4 5 8 8 7 6 6 6 5 5 5 5 4 5 5 5 5 4 4 3 3 3 3 3 4 4 3 3 3 3 3 3 3 3 3 3 3 3 3 3 3 3 4
6 7 7 8 5 5 5 3 4 4 5 5 5 5 4 5 5 5 4 4 4 3 3 3 3 3 3 3 3 3 3 4 4 3 3 3 3 3 3 3 3 5 5 6
Wind_Direction
189 218 221 221 228 262 297 286 276 278 190 230 245 252 238 215 214 228 230 218 195 172 140 121 123 129 122 114 110 113 116 107 102 125 155 173 193 156 61 82 88 95 88 95
205 233 246 262 260 265 274 273 277 296 277 262 267 266 250 224 219 219 223 211 185 162 144 144 145 132 121 118 119 116 106 114 113 124 167 173 142 135 134 85 80 91 91 83
225 239 237 238 248 252 257 263 272 284 305 265 268 273 237 217 221 212 207 203 180 171 164 161 154 138 119 123 135 133 131 130 139 143 129 107 85 97 111 95 96 68 71 75
246 245 254 249 244 251 255 272 283 279 282 262 229 275 246 214 214 215 202 194 176 154 154 154 144 126 120 111 102 112 119 126 142 151 143 137 142 143 151 132 127 94 78 64
242 244 245 243 251 256 258 336 283 267 265 273 241 250 263 205 219 211 191 181 162 140 138 134 130 121 106 95 115 129 119 125 127 119 126 126 123 134 111 101 100 99 95 83
256 283 294 287 305 280 297 289 260 249 246 253 228 223 266 216 217 191 176 168 153 135 126 116 104 97 89 87 112 130 121 107 110 112 119 128 128 115 105 97 95 95 91 83
236 222 206 228 224 216 225 208 246 229 220 240 219 217 246 239 164 165 162 156 146 133 128 125 120 116 110 110 113 116 105 102 105 101 113 132 140 126 126 130 122 103 78 55
230 226 183 198 227 220 212 219 213 230 242 270 235 227 237 119 90 104 131 137 134 134 133 127 125 125 118 106 113 109 100 90 97 105 112 117 123 128 122 113 114 111 104 88
258 220 74 70 302 282 222 225 264 285 281 274 247 238 214 137 115 122 131 141 148 143 133 128 123 122 124 126 129 129 114 99 93 98 100 98 97 106 113 118 111 105 95 77
297 265 212 182 242 248 264 281 215 212 241 257 251 237 228 187 188 163 158 164 156 141 132 127 129 124 119 118 113 110 117 114 102 90 98 94 84 89 101 100 108 109 92 78
270 231 215 205 215 223 208 225 234 243 240 239 266 262 3 148 165 163 160 147 143 148 148 139 131 118 112 108 111 106 111 116 110 105 95 85 70 71 80 86 96 97 87 86
250 245 240 225 233 293 255 225 205 219 242 239 259 267 340 84 105 116 126 137 143 150 148 144 133 121 118 122 122 113 116 118 126 125 115 109 92 83 82 85 77 77 82 83
229 218 234 248 248 253 259 251 238 238 254 247 249 261 282 108 115 142 155 160 159 159 160 157 148 149 154 153 148 141 133 130 123 122 120 115 109 101 98 90 72 67 71 63
234 230 230 242 255 220 239 243 231 219 232 248 243 256 262 252 252 243 204 184 177 180 180 181 177 178 174 173 164 152 143 134 132 132 132 138 144 136 115 92 75 70 74 72
199 237 245 260 266 260 253 244 230 229 234 240 259 261 264 257 242 241 240 224 203 197 194 197 193 193 188 180 169 153 145 138 135 130 135 141 138 127 121 117 109 84 72 18
205 238 258 262 252 253 263 250 238 241 245 251 266 272 264 260 248 239 234 230 225 212 208 206 202 197 192 185 176 160 158 158 139 143 149 133 131 133 139 153 144 149 267 262
215 217 243 260 256 281 262 234 224 230 229 228 243 254 263 270 256 245 237 234 231 219 207 206 203 199 194 187 176 178 176 163 152 159 164 156 158 159 165 177 181 218 237 244
216 230 237 259 255 246 245 223 203 228 242 234 244 257 256 257 269 266 246 229 233 224 213 206 201 199 190 174 169 163 160 168 170 173 176 167 166 182 189 193 219 242 245 240
222 213 223 221 243 265 256 226 199 215 257 227 232 248 263 283 311 280 240 218 216 211 209 202 194 195 185 175 168 161 173 183 184 182 182 184 185 200 209 221 235 243 248 257
221 214 219 221 236 250 247 187 167 167 267 228 212 234 248 231 265 269 259 223 208 201 194 189 185 185 185 180 166 170 188 194 200 189 191 203 197 203 216 224 237 244 238 245
190 207 220 229 240 256 232 172 139 189 241 241 202 224 224 219 229 254 308 303 185 204 195 183 180 189 195 177 167 181 194 206 197 179 191 210 206 208 213 221 235 234 242 250
190 194 207 212 230 249 185 156 190 220 246 223 211 221 231 244 264 272 268 253 222 214 196 180 183 196 194 178 174 189 207 204 177 177 195 210 212 213 212 207 232 231 226 243
207 203 203 208 223 251 191 213 229 233 261 261 238 250 237 250 255 252 241 230 219 215 219 192 181 190 202 189 181 195 207 182 174 184 199 208 209 205 203 207 225 235 224 237
229 225 242 262 262 260 246 258 267 262 260 268 255 241 231 241 244 238 232 227 220 216 218 204 183 193 212 202 189 198 192 178 180 193 204 206 199 208 218 229 227 229 231 236
230 208 241 259 268 278 261 244 251 258 264 266 264 246 233 232 239 227 224 221 216 218 212 198 197 205 211 200 198 200 190 179 192 202 209 207 205 210 224 236 238 239 239 236
220 219 228 246 250 245 266 261 248 253 256 251 251 257 248 232 236 229 228 221 211 207 202 201 205 211 213 198 200 200 190 184 193 205 207 206 207 214 221 234 260 257 251 262
Height
1478 1480 1479 1477 1476 1475 1474 1475 1475 1473 1473 1475 1476 1474 1474 1474 1475 1475 1476 1477 1478 1479 1481 1481 1482 1483 1483 1483 1483 1484 1484 1485 1486 1487 1488 1489 1490 1491 1492 1494 1495 1496 1498 1499
1478 1479 1475 1474 1475 1475 1475 1477 1476 1474 1472 1474 1474 1472 1470 1470 1471 1471 1472 1474 1475 1477 1478 1479 1480 1480 1480 1481 1481 1481 1482 1483 1484 1485 1486 1487 1488 1489 1490 1491 1493 1494 1495 1496
1475 1475 1474 1474 1475 1476 1476 1478 1477 1478 1475 1474 1476 1473 1467 1465 1466 1467 1468 1470 1472 1473 1475 1476 1477 1478 1478 1478 1478 1479 1479 1480 1481 1483 1484 1485 1486 1487 1488 1489 1489 1491 1493 1494
1474 1473 1474 1474 1475 1475 1477 1474 1475 1477 1482 1482 1477 1481 1465 1462 1463 1463 1464 1466 1469 1471 1472 1474 1475 1475 1476 1476 1476 1477 1477 1478 1479 1480 1481 1482 1483 1484 1485 1487 1488 1489 1490 1492
1474 1473 1474 1475 1475 1475 1475 1475 1476 1478 1480 1482 1477 1480 1466 1459 1460 1460 1461 1463 1466 1468 1470 1471 1472 1473 1473 1474 1474 1475 1475 1476 1477 1478 1479 1480 1481 1482 1484 1485 1486 1487 1488 1490
1474 1474 1474 1474 1474 1475 1475 1477 1478 1478 1481 1486 1473 1475 1466 1459 1455 1456 1458 1460 1463 1466 1468 1469 1470 1471 1471 1472 1472 1473 1473 1474 1475 1476 1477 1478 1479 1480 1482 1483 1483 1485 1486 1487
1474 1473 1473 1475 1476 1477 1478 1483 1487 1485 1485 1479 1464 1467 1463 1453 1450 1452 1455 1458 1461 1464 1466 1467 1468 1469 1469 1469 1470 1471 1471 1472 1473 1474 1475 1476 1477 1478 1479 1481 1482 1483 1484 1485
1475 1475 1472 1473 1475 1476 1477 1478 1485 1486 1480 1471 1464 1465 1458 1451 1450 1451 1454 1457 1460 1462 1464 1466 1467 1467 1467 1467 1468 1469 1469 1470 1471 1472 1473 1474 1475 1477 1478 1479 1480 1481 1482 1483
1473 1474 1472 1473 1474 1475 1475 1477 1474 1479 1477 1479 1468 1457 1454 1451 1451 1453 1455 1457 1459 1461 1463 1464 1465 1466 1466 1467 1467 1467 1467 1468 1469 1470 1471 1472 1473 1475 1476 1477 1478 1479 1480 1481
1473 1477 1474 1474 1475 1475 1476 1475 1478 1481 1481 1475 1462 1457 1456 1454 1453 1454 1455 1457 1459 1460 1462 1464 1464 1465 1465 1465 1466 1466 1466 1467 1468 1468 1469 1471 1471 1472 1474 1475 1476 1477 1478 1479
1473 1478 1477 1476 1476 1475 1476 1477 1476 1476 1475 1475 1470 1461 1450 1450 1451 1453 1455 1456 1458 1459 1461 1462 1463 1464 1464 1465 1465 1465 1465 1466 1466 1467 1468 1469 1470 1471 1471 1473 1474 1475 1475 1476
1473 1476 1476 1474 1472 1472 1471 1471 1475 1480 1476 1473 1472 1466 1451 1450 1451 1453 1455 1456 1458 1459 1460 1461 1462 1463 1463 1464 1464 1464 1464 1465 1465 1466 1466 1467 1468 1469 1469 1470 1471 1472 1473 1474
1474 1477 1477 1475 1477 1475 1473 1471 1472 1475 1476 1474 1472 1465 1452 1451 1452 1453 1455 1456 1457 1458 1459 1460 1461 1461 1462 1462 1462 1462 1463 1463 1464 1464 1465 1466 1466 1466 1467 1468 1469 1470 1470 1471
1474 1477 1476 1472 1469 1472 1474 1472 1472 1474 1476 1471 1464 1459 1454 1453 1452 1453 1453 1454 1455 1456 1457 1458 1459 1459 1460 1460 1460 1461 1461 1461 1462 1463 1463 1464 1464 1465 1465 1466 1467 1467 1468 1468
1473 1475 1472 1469 1467 1468 1468 1469 1470 1471 1468 1467 1459 1456 1451 1450 1451 1451 1451 1452 1453 1454 1455 1456 1456 1456 1457 1457 1458 1458 1459 1459 1460 1461 1461 1462 1462 1463 1463 1464 1464 1465 1465 1465
1471 1473 1471 1469 1466 1466 1465 1463 1464 1464 1462 1460 1457 1453 1447 1447 1448 1448 1449 1449 1450 1450 1451 1452 1453 1454 1454 1455 1455 1456 1456 1457 1457 1458 1459 1459 1460 1460 1461 1461 1462 1462 1462 1463
1470 1472 1471 1467 1465 1465 1463 1454 1456 1455 1452 1453 1453 1447 1444 1445 1445 1445 1445 1446 1446 1447 1447 1448 1449 1450 1451 1451 1452 1453 1453 1454 1455 1456 1456 1457 1457 1458 1458 1459 1459 1459 1459 1460
1468 1469 1469 1467 1467 1469 1449 1443 1444 1446 1445 1445 1443 1441 1442 1442 1442 1442 1442 1443 1442 1443 1444 1445 1446 1447 1447 1448 1449 1450 1451 1452 1453 1453 1454 1455 1455 1455 1455 1456 1456 1456 1456 1456
1462 1465 1466 1466 1463 1452 1443 1442 1442 1445 1443 1439 1440 1440 1440 1440 1440 1439 1439 1439 1439 1440 1441 1442 1442 1443 1444 1445 1446 1447 1448 1449 1450 1450 1451 1452 1452 1452 1452 1452 1452 1453 1453 1453
1459 1461 1464 1462 1460 1453 1440 1438 1437 1441 1442 1435 1435 1436 1437 1438 1442 1438 1436 1436 1436 1437 1438 1438 1439 1440 1441 1442 1443 1444 1444 1445 1446 1447 1448 1449 1449 1449 1449 1449 1449 1449 1449 1450
1460 1460 1461 1458 1455 1444 1437 1436 1438 1445 1439 1433 1432 1433 1435 1436 1436 1435 1434 1434 1434 1434 1434 1435 1435 1436 1437 1438 1439 1440 1441 1442 1443 1444 1445 1445 1446 1446 1446 1446 1446 1446 1446 1446
1452 1455 1455 1453 1451 1444 1434 1435 1437 1434 1431 1430 1430 1431 1432 1432 1432 1432 1431 1431 1431 1431 1431 1432 1432 1433 1434 1435 1436 1436 1437 1439 1440 1441 1441 1442 1442 1442 1442 1442 1442 1443 1443 1443
1444 1443 1442 1442 1438 1431 1429 1429 1429 1429 1429 1428 1428 1429 1429 1429 1429 1429 1428 1428 1428 1428 1429 1429 1429 1429 1430 1431 1432 1433 1434 1435 1436 1437 1437 1438 1438 1439 1439 1439 1439 1439 1439 1439
1438 1437 1437 1436 1429 1427 1427 1426 1426 1426 1426 1426 1426 1426 1426 1426 1425 1425 1425 1425 1425 1425 1425 1426 1426 1426 1427 1428 1429 1430 1430 1431 1432 1433 1433 1434 1434 1435 1435 1435 1435 1435 1435 1435
1432 1434 1434 1432 1426 1424 1422 1422 1423 1423 1422 1422 1422 1422 1422 1422 1421 1422 1421 1421 1422 1422 1422 1422 1422 1423 1423 1424 1425 1426 1427 1428 1428 1429 1429 1430 1431 1431 1431 1432 1432 1431 1432 1431
1427 1429 1429 1425 1421 1421 1419 1418 1419 1418 1418 1418 1418 1417 1418 1418 1417 1418 1417 1418 1418 1419 1419 1419 1419 1420 1420 1421 1421 1422 1423 1424 1424 1425 1425 1426 1427 1427 1427 1427 1428 1427 1428 1428